When you browse on this site, cookies collect data to enhance your experience and personalize the content and advertising you see.
Visit our Privacy Policy to learn more. By continuing to use the site, you agree to this use of cookies and data.
  • In Sweden
  • List of Countries
  • For 7 days
  • Water Temperature
  • Satellite Maps
  • Weather Map
  • Weather Widgets
  • user-avatar
    Login

    Hourly Weather Amli

    Today, 13 December, Thursday

    Time Temperature Precipitation Wind Pressure Humidity
    00:00 +22°C° 0 mm 3 mps 758 mmHg 61%
    01:00 +22°C° 0 mm 3 mps 758 mmHg 59%
    02:00 +22°C° 0 mm 4 mps 758 mmHg 57%
    03:00 +21°C° 0 mm 4 mps 758 mmHg 55%
    04:00 +21°C° 0 mm 4 mps 758 mmHg 54%
    05:00 +20°C° 0 mm 2 mps 758 mmHg 58%
    06:00 +21°C° 0 mm 2 mps 758 mmHg 55%
    07:00 +22°C° 0 mm 3 mps 759 mmHg 53%
    08:00 +24°C° 0 mm 3 mps 759 mmHg 50%
    09:00 +26°C° 0 mm 3 mps 759 mmHg 45%
    10:00 +28°C° 0 mm 4 mps 759 mmHg 39%
    11:00 +30°C° 0 mm 4 mps 759 mmHg 33%
    12:00 +32°C° 0 mm 4 mps 758 mmHg 31%
    13:00 +32°C° 0 mm 4 mps 758 mmHg 29%
    14:00 +33°C° 0 mm 4 mps 757 mmHg 26%
    15:00 +32°C° 0 mm 4 mps 757 mmHg 28%
    16:00 +30°C° 0 mm 5 mps 757 mmHg 30%
    17:00 +29°C° 0 mm 5 mps 757 mmHg 32%
    18:00 +27°C° 0 mm 5 mps 757 mmHg 32%
    19:00 +26°C° 0 mm 5 mps 758 mmHg 31%
    20:00 +25°C° 0 mm 5 mps 758 mmHg 31%
    21:00 +23°C° 0 mm 5 mps 758 mmHg 31%
    22:00 +22°C° 0 mm 5 mps 758 mmHg 31%
    23:00 +21°C° 0 mm 5 mps 758 mmHg 31%

    Tomorrow, 14 December, Friday

    Time Temperature Precipitation Wind Pressure Humidity
    00:00 +21°C° 0 mm 5 mps 758 mmHg 31%
    01:00 +20°C° 0 mm 5 mps 758 mmHg 31%
    02:00 +20°C° 0 mm 5 mps 758 mmHg 30%
    03:00 +20°C° 0 mm 5 mps 758 mmHg 31%
    04:00 +20°C° 0 mm 5 mps 758 mmHg 31%
    05:00 +20°C° 0 mm 5 mps 758 mmHg 32%
    06:00 +20°C° 0 mm 5 mps 758 mmHg 32%
    07:00 +21°C° 0 mm 5 mps 759 mmHg 33%
    08:00 +22°C° 0 mm 5 mps 759 mmHg 34%
    09:00 +26°C° 0 mm 5 mps 759 mmHg 31%
    10:00 +28°C° 0 mm 5 mps 759 mmHg 28%
    11:00 +30°C° 0 mm 5 mps 759 mmHg 26%
    12:00 +32°C° 0 mm 5 mps 759 mmHg 25%
    13:00 +33°C° 0 mm 5 mps 758 mmHg 24%
    14:00 +34°C° 0 mm 4 mps 757 mmHg 24%
    15:00 +33°C° 0 mm 4 mps 757 mmHg 26%
    16:00 +32°C° 0 mm 4 mps 757 mmHg 29%
    17:00 +30°C° 0 mm 4 mps 756 mmHg 32%
    18:00 +28°C° 0 mm 4 mps 757 mmHg 33%
    19:00 +27°C° 0 mm 4 mps 757 mmHg 34%
    20:00 +25°C° 0 mm 5 mps 758 mmHg 35%
    21:00 +25°C° 0 mm 5 mps 758 mmHg 35%
    22:00 +25°C° 0 mm 5 mps 758 mmHg 35%
    23:00 +23°C° 0 mm 5 mps 758 mmHg 35%

    Day after tomorrow, 15 December, Saturday

    Time Temperature Precipitation Wind Pressure Humidity
    00:00 +23°C° 0 mm 5 mps 758 mmHg 35%
    01:00 +23°C° 0 mm 5 mps 757 mmHg 34%
    02:00 +23°C° 0 mm 5 mps 757 mmHg 34%
    03:00 +22°C° 0 mm 5 mps 757 mmHg 35%
    04:00 +22°C° 0 mm 5 mps 757 mmHg 36%
    05:00 +22°C° 0 mm 5 mps 757 mmHg 38%
    06:00 +22°C° 0 mm 5 mps 757 mmHg 38%
    07:00 +23°C° 0 mm 5 mps 758 mmHg 38%
    08:00 +24°C° 0 mm 6 mps 759 mmHg 38%
    09:00 +27°C° 0 mm 5 mps 759 mmHg 35%
    10:00 +29°C° 0 mm 5 mps 759 mmHg 32%
    11:00 +32°C° 0 mm 5 mps 759 mmHg 28%
    12:00 +33°C° 0 mm 5 mps 758 mmHg 27%
    13:00 +34°C° 0 mm 4 mps 757 mmHg 26%
    14:00 +34°C° 0 mm 4 mps 756 mmHg 24%
    15:00 +33°C° 0 mm 4 mps 756 mmHg 27%
    16:00 +31°C° 0 mm 3 mps 756 mmHg 29%
    17:00 +30°C° 0 mm 3 mps 756 mmHg 31%
    18:00 +29°C° 0 mm 4 mps 757 mmHg 31%
    19:00 +27°C° 0 mm 4 mps 757 mmHg 32%
    20:00 +26°C° 0 mm 4 mps 758 mmHg 32%
    21:00 +25°C° 0 mm 4 mps 758 mmHg 31%
    22:00 +25°C° 0 mm 5 mps 758 mmHg 30%
    23:00 +25°C° 0 mm 5 mps 758 mmHg 30%

    16 December, Sunday

    Time Temperature Precipitation Wind Pressure Humidity
    00:00 +23°C° 0 mm 5 mps 758 mmHg 31%
    01:00 +23°C° 0 mm 4 mps 757 mmHg 33%
    02:00 +22°C° 0 mm 4 mps 757 mmHg 35%
    03:00 +22°C° 0 mm 5 mps 757 mmHg 37%
    04:00 +22°C° 0 mm 5 mps 757 mmHg 39%
    05:00 +22°C° 0 mm 5 mps 757 mmHg 41%
    06:00 +23°C° 0 mm 5 mps 758 mmHg 40%
    07:00 +25°C° 0 mm 5 mps 758 mmHg 40%
    08:00 +25°C° 0 mm 5 mps 759 mmHg 40%
    09:00 +27°C° 0 mm 5 mps 759 mmHg 35%
    10:00 +29°C° 0 mm 5 mps 759 mmHg 31%
    11:00 +33°C° 0 mm 5 mps 758 mmHg 27%
    12:00 +33°C° 0 mm 5 mps 758 mmHg 25%
    13:00 +34°C° 0 mm 4 mps 757 mmHg 24%
    14:00 +34°C° 0 mm 4 mps 756 mmHg 22%
    15:00 +33°C° 0 mm 3 mps 756 mmHg 25%
    16:00 +31°C° 0 mm 3 mps 756 mmHg 28%
    17:00 +30°C° 0 mm 3 mps 756 mmHg 30%
    18:00 +28°C° 0 mm 4 mps 756 mmHg 31%
    19:00 +27°C° 0 mm 4 mps 757 mmHg 32%
    20:00 +25°C° 0 mm 4 mps 757 mmHg 33%
    21:00 +25°C° 0 mm 4 mps 757 mmHg 34%
    22:00 +23°C° 0 mm 4 mps 757 mmHg 34%
    23:00 +23°C° 0 mm 4 mps 757 mmHg 34%

    17 December, Monday

    Time Temperature Precipitation Wind Pressure Humidity
    00:00 +23°C° 0 mm 4 mps 757 mmHg 35%
    01:00 +22°C° 0 mm 4 mps 757 mmHg 36%
    02:00 +22°C° 0 mm 4 mps 756 mmHg 37%
    03:00 +22°C° 0 mm 4 mps 756 mmHg 38%
    04:00 +21°C° 0 mm 4 mps 756 mmHg 39%
    05:00 +21°C° 0 mm 4 mps 756 mmHg 41%
    06:00 +21°C° 0 mm 4 mps 757 mmHg 41%
    07:00 +22°C° 0 mm 3 mps 758 mmHg 41%
    08:00 +22°C° 0 mm 3 mps 758 mmHg 41%
    09:00 +25°C° 0 mm 3 mps 758 mmHg 36%
    10:00 +28°C° 0 mm 3 mps 758 mmHg 31%
    11:00 +30°C° 0 mm 3 mps 758 mmHg 26%
    12:00 +30°C° 0 mm 3 mps 757 mmHg 25%
    13:00 +32°C° 0 mm 4 mps 756 mmHg 24%
    14:00 +33°C° 0 mm 4 mps 755 mmHg 22%
    15:00 +32°C° 0 mm 4 mps 755 mmHg 25%
    16:00 +30°C° 0 mm 4 mps 755 mmHg 27%
    17:00 +29°C° 0 mm 4 mps 755 mmHg 30%
    18:00 +27°C° 0 mm 4 mps 756 mmHg 30%
    19:00 +26°C° 0 mm 4 mps 756 mmHg 31%
    20:00 +23°C° 0 mm 4 mps 757 mmHg 32%
    21:00 +23°C° 0 mm 4 mps 757 mmHg 32%
    22:00 +22°C° 0 mm 4 mps 757 mmHg 32%
    23:00 +21°C° 0 mm 4 mps 757 mmHg 32%

    18 December, Tuesday

    Time Temperature Precipitation Wind Pressure Humidity
    00:00 +21°C° 0 mm 4 mps 757 mmHg 34%
    01:00 +20°C° 0 mm 4 mps 757 mmHg 36%
    02:00 +20°C° 0 mm 3 mps 756 mmHg 38%
    03:00 +20°C° 0 mm 3 mps 756 mmHg 42%
    04:00 +19°C° 0 mm 3 mps 757 mmHg 47%
    05:00 +19°C° 0 mm 3 mps 757 mmHg 51%
    06:00 +20°C° 0 mm 3 mps 757 mmHg 53%
    07:00 +21°C° 0 mm 3 mps 758 mmHg 55%
    08:00 +22°C° 0 mm 3 mps 759 mmHg 57%
    09:00 +25°C° 0 mm 3 mps 759 mmHg 50%
    10:00 +27°C° 0 mm 3 mps 759 mmHg 43%
    11:00 +30°C° 0 mm 3 mps 758 mmHg 35%
    12:00 +31°C° 0 mm 3 mps 758 mmHg 33%
    13:00 +31°C° 0 mm 3 mps 757 mmHg 30%
    14:00 +33°C° 0 mm 4 mps 756 mmHg 27%
    15:00 +32°C° 0 mm 4 mps 755 mmHg 30%
    16:00 +30°C° 0 mm 4 mps 755 mmHg 33%
    17:00 +29°C° 0 mm 4 mps 755 mmHg 36%
    18:00 +28°C° 0 mm 4 mps 756 mmHg 39%
    19:00 +26°C° 0 mm 4 mps 756 mmHg 42%
    20:00 +25°C° 0 mm 4 mps 757 mmHg 45%
    21:00 +23°C° 0 mm 4 mps 757 mmHg 47%
    22:00 +23°C° 0 mm 4 mps 757 mmHg 49%
    23:00 +22°C° 0 mm 4 mps 757 mmHg 51%
    Show more